Stations météo

réclame
Mon MeteoGroup
De Bilt, Pays-Bas (6260): Température de l'air & dewpoint: 18.01.2018 10:00:00 - 24.01.2018 10:00:00 (CET)De Bilt, Pays-Bas (6260): Température de l'air 5cm & Température de l'air -5cm: 18.01.2018 10:00:00 - 24.01.2018 10:00:00 (CET)De Bilt, Pays-Bas (6260): Température de l'air -20cm & Température de l'air -100cm: 18.01.2018 10:00:00 - 24.01.2018 10:00:00 (CET)De Bilt, Pays-Bas (6260): Vitesse du vent & gusts: 18.01.2018 10:00:00 - 24.01.2018 10:00:00 (CET)De Bilt, Pays-Bas (6260): Direction du vent: 18.01.2018 10:00:00 - 24.01.2018 10:00:00 (CET)De Bilt, Pays-Bas (6260): reduced air pressure: 18.01.2018 10:00:00 - 24.01.2018 10:00:00 (CET)De Bilt, Pays-Bas (6260): visibility: 18.01.2018 10:00:00 - 24.01.2018 10:00:00 (CET)De Bilt, Pays-Bas (6260): Quantités de précipitations: 18.01.2018 10:00:00 - 24.01.2018 10:00:00 (CET)
Date & Time tt [°C] td [°C] tt 5cm [°C] tt -5cm [°C] tt -20cm [°C] tt -100cm [°C] ff [km/h] ff [knt] fx [km/h] fx [knt] dd ppp [hPa] vv [km] rr [mm]
24.01.2018 10:00:00 12,4 10,3 12,2 7,2 6,4 6,9 22 12 - - SSW 1012,2 50 0,0
24.01.2018 09:00:00 12,4 10,1 12,0 7,2 6,3 6,9 25 14 40 21 SSW 1013,0 29 0,0
24.01.2018 08:00:00 12,2 10,4 11,7 7,1 6,3 6,9 25 14 40 21 SSW 1013,5 46 0,0
24.01.2018 07:00:00 12,3 10,5 11,8 7,0 6,2 6,9 25 14 - - SSW 1014,0 38 0,0
24.01.2018 06:00:00 11,9 10,6 11,5 6,9 6,2 6,9 22 12 36 19 SSW 1014,3 36 0,0
24.01.2018 05:00:00 11,5 10,7 11,2 6,9 6,1 6,9 22 12 36 19 SSW 1015,0 11 0,0
24.01.2018 04:00:00 11,5 10,0 11,2 6,8 6,1 6,9 18 10 - - SW 1015,4 24 0,0
24.01.2018 03:00:00 11,4 9,9 11,1 6,7 6,1 6,9 25 14 40 21 SW 1015,8 35 0,0
24.01.2018 02:00:00 11,4 9,9 11,0 6,7 6,0 6,9 25 14 47 25 SW 1016,0 34 0,0
24.01.2018 01:00:00 11,2 10,2 10,7 6,6 6,0 6,9 25 14 - - SW 1016,0 19 0,1
24.01.2018 00:00:00 10,6 10,1 10,5 6,5 5,9 6,9 22 12 40 21 SW 1016,0 4,1 0,4
23.01.2018 23:00:00 10,5 9,9 10,2 6,4 5,9 6,9 22 12 36 19 SW 1015,8 5 0,1
23.01.2018 22:00:00 10,1 9,3 10,0 6,3 5,8 6,9 25 14 - - SSW 1015,5 4,8 0,0
23.01.2018 21:00:00 9,9 9,1 9,6 6,2 5,8 6,9 25 14 43 23 SSW 1015,9 7 0,0
23.01.2018 20:00:00 9,6 8,9 9,3 6,2 5,8 6,9 29 16 47 25 SSW 1015,8 5 0,1
23.01.2018 19:00:00 9,1 8,6 8,9 6,1 5,7 6,9 18 10 - - SSW 1016,2 4,0 0,2
23.01.2018 18:00:00 8,8 8,1 8,6 6,0 5,7 6,9 22 12 36 19 SSW 1016,5 7 0,0
23.01.2018 17:00:00 8,4 7,8 8,3 6,0 5,6 6,9 18 10 36 19 S 1016,6 8 0,1
23.01.2018 16:00:00 8,5 7,0 8,3 5,9 5,6 6,9 22 12 - - S 1017,0 10 0,2
23.01.2018 15:00:00 8,4 6,6 8,2 5,9 5,6 6,9 22 12 32 18 S 1017,4 11 0,3
23.01.2018 14:00:00 9,4 5,8 9,5 5,7 5,5 6,9 22 12 36 19 S 1018,0 26 0,0
23.01.2018 13:00:00 9,4 5,9 9,5 5,6 5,5 6,9 22 12 - - S 1018,8 28 0,0
23.01.2018 12:00:00 8,4 5,4 8,4 5,4 5,5 7,0 18 10 29 16 S 1019,5 28 0,0
23.01.2018 11:00:00 7,6 4,6 7,4 5,3 5,5 7,0 14 8 25 14 S 1019,9 29 0,0
23.01.2018 10:00:00 7,1 4,2 6,8 5,2 5,5 7,0 14 8 - - S 1019,8 24 0,0
23.01.2018 09:00:00 6,8 3,9 6,4 5,2 5,5 7,0 18 10 29 16 SSW 1020,0 24 0,0
23.01.2018 08:00:00 6,4 4,0 5,9 5,1 5,5 7,0 14 8 25 14 SSW 1019,6 24 0,0
23.01.2018 07:00:00 5,8 3,7 5,2 5,1 5,5 7,0 11 6 - - SSW 1019,6 30 0,0
23.01.2018 06:00:00 5,1 3,7 3,0 5,2 5,5 7,0 7 4 11 6 SSW 1019,8 21 0,0
23.01.2018 05:00:00 5,5 3,8 4,5 5,2 5,5 7,0 7 4 14 8 SW 1019,4 20 0,0
23.01.2018 04:00:00 6,2 4,1 5,9 5,2 5,5 7,0 11 6 - - SW 1019,3 27 0,0
23.01.2018 03:00:00 5,3 3,7 4,3 5,3 5,5 7,0 11 6 14 8 SW 1019,1 24 0,0
23.01.2018 02:00:00 6,0 4,1 5,1 5,4 5,5 7,0 11 6 22 12 SW 1018,5 25 0,0
23.01.2018 01:00:00 7,1 4,6 6,6 5,4 5,4 7,0 11 6 - - WSW 1018,4 24 0,0
23.01.2018 00:00:00 6,8 4,5 6,1 5,4 5,4 7,0 11 6 25 14 W 1017,5 22 0,0
22.01.2018 23:00:00 7,4 4,7 6,8 5,4 5,4 7,0 11 6 22 12 W 1016,7 23 0,0
22.01.2018 22:00:00 7,3 4,7 6,9 5,4 5,4 7,0 14 8 - - WSW 1015,8 22 0,0
22.01.2018 21:00:00 7,2 4,6 6,7 5,4 5,3 7,0 11 6 22 12 W 1015,1 20 0,0
22.01.2018 20:00:00 6,8 4,6 6,3 5,4 5,3 7,0 11 6 22 12 W 1014,3 15 0,0
22.01.2018 19:00:00 6,9 4,7 6,4 5,5 5,3 7,0 11 6 - - W 1013,5 16 0,0
22.01.2018 18:00:00 7,1 4,9 6,8 5,5 5,2 7,0 11 6 22 12 W 1012,7 15 0,0
22.01.2018 17:00:00 7,5 5,0 7,3 5,5 5,2 7,0 11 6 25 14 W 1011,4 16 0,0
22.01.2018 16:00:00 7,8 5,0 7,6 5,4 5,1 7,0 14 8 - - WNW 1010,2 17 0,0
22.01.2018 15:00:00 8,2 5,2 8,2 5,3 5,1 7,0 11 6 25 14 W 1008,8 18 0,0
22.01.2018 14:00:00 8,3 5,5 8,3 5,1 5,0 7,0 14 8 25 14 WNW 1008,1 20 0,0
22.01.2018 13:00:00 8,3 5,8 8,7 4,9 5,0 7,0 11 6 - - WNW 1007,7 21 0,0
22.01.2018 12:00:00 7,6 5,7 7,5 4,8 5,0 7,0 7 4 14 8 W 1007,2 20 0,1
22.01.2018 11:00:00 7,2 5,6 7,1 4,7 5,0 7,0 11 6 18 10 W 1006,9 19 0,0
22.01.2018 10:00:00 7,0 5,3 6,7 4,6 4,9 7,0 14 8 - - W 1006,2 21 0,0
22.01.2018 09:00:00 6,8 5,5 6,4 4,5 4,9 7,0 14 8 25 14 W 1005,6 17 0,0
22.01.2018 08:00:00 6,4 5,7 6,0 4,4 4,9 7,1 14 8 22 12 W 1004,9 9 0,0
22.01.2018 07:00:00 5,4 5,2 4,8 4,4 4,9 7,1 14 8 - - WSW 1004,5 3,2 0,0
22.01.2018 06:00:00 3,6 3,4 3,3 4,3 4,9 7,1 11 6 18 10 SSW 1004,2 4,3 0,1
22.01.2018 05:00:00 2,9 2,8 2,9 4,3 4,9 7,1 11 6 22 12 S 1004,5 2,5 0,1
22.01.2018 04:00:00 2,6 2,4 2,6 4,3 4,9 7,1 18 10 - - SSE 1004,8 4,2 0,1
22.01.2018 03:00:00 2,4 2,0 2,4 4,3 4,9 7,1 18 10 29 16 SSE 1005,7 9 0,1
22.01.2018 02:00:00 2,2 1,7 2,2 4,3 4,9 7,1 18 10 29 16 SE 1006,5 3,6 0,1
22.01.2018 01:00:00 2,0 1,4 1,8 4,3 4,9 7,1 22 12 - - SE 1007,5 4,7 0,9
22.01.2018 00:00:00 2,3 1,3 2,2 4,3 4,9 7,1 18 10 32 18 SE 1008,6 7 0,8
21.01.2018 23:00:00 2,8 1,4 2,7 4,3 4,9 7,1 18 10 32 18 SSE 1010,0 12 0,4
21.01.2018 22:00:00 3,3 1,7 3,0 4,3 4,9 7,1 14 8 - - SSE 1011,2 11 0,0
21.01.2018 21:00:00 3,3 1,8 3,0 4,3 4,9 7,1 14 8 22 12 SSE 1012,3 13 0,0
21.01.2018 20:00:00 3,3 1,9 2,9 4,3 4,9 7,1 11 6 18 10 SSE 1013,1 16 0,0
21.01.2018 19:00:00 3,4 1,8 2,8 4,3 4,9 7,1 11 6 - - SSE 1013,8 22 0,0
21.01.2018 18:00:00 3,6 2,0 2,8 4,3 4,8 7,1 11 6 14 8 SSE 1014,4 26 0,0
21.01.2018 17:00:00 4,5 2,1 3,8 4,3 4,8 7,1 11 6 18 10 S 1014,9 29 0,0
21.01.2018 16:00:00 5,3 1,7 5,0 4,2 4,8 7,1 11 6 - - S 1015,4 38 0,0
21.01.2018 15:00:00 5,9 1,3 5,8 3,9 4,8 7,1 11 6 14 8 SW 1015,7 44 0,0
21.01.2018 14:00:00 6,6 1,3 7,0 3,7 4,8 7,1 11 6 18 10 WSW 1015,7 34 0,0
21.01.2018 13:00:00 6,2 1,5 7,3 3,7 4,9 7,1 11 6 - - SW 1015,8 32 0,0
21.01.2018 12:00:00 5,1 0,9 6,0 3,7 4,9 7,1 7 4 11 6 SW 1015,7 33 0,0
21.01.2018 11:00:00 4,7 0,7 3,8 3,7 4,9 7,1 4 2 11 6 W 1015,3 35 0,0
21.01.2018 10:00:00 2,9 0,7 0,9 3,7 5,0 7,1 4 2 - - W 1014,6 32 0,0
21.01.2018 09:00:00 0,3 -0,9 -1,9 3,8 5,0 7,2 7 4 11 6 W 1014,0 37 0,0
21.01.2018 08:00:00 1,1 -0,6 -1,0 3,9 5,0 7,2 7 4 14 8 W 1013,2 43 0,0
21.01.2018 07:00:00 1,1 -0,6 -0,6 4,0 5,1 7,2 7 4 - - W 1012,0 42 0,0
21.01.2018 06:00:00 0,6 -0,6 -1,9 4,1 5,1 7,2 7 4 14 8 W 1011,1 42 0,0
21.01.2018 05:00:00 1,1 -0,5 -1,1 4,1 5,1 7,2 7 4 14 8 W 1010,2 45 0,0
21.01.2018 04:00:00 1,8 -0,1 0,5 4,2 5,1 7,2 7 4 - - WNW 1009,2 41 0,0
21.01.2018 03:00:00 1,6 0,6 0,1 4,3 5,1 7,2 11 6 18 10 W 1008,3 25 0,0
21.01.2018 02:00:00 -0,3 -0,5 -1,9 4,4 5,1 7,2 7 4 11 6 WSW 1007,1 7 0,0
21.01.2018 01:00:00 1,5 0,8 0,7 4,4 5,1 7,2 4 2 - - W 1005,8 25 0,2
21.01.2018 00:00:00 2,5 1,6 2,2 4,5 5,1 7,2 14 8 25 14 WNW 1004,9 4,3 0,6
20.01.2018 23:00:00 2,7 1,8 2,5 4,5 5,1 7,2 7 4 11 6 WNW 1003,9 9 0,2
20.01.2018 22:00:00 2,7 2,2 2,6 4,5 5,1 7,2 4 2 - - W 1002,9 7 0,1
20.01.2018 21:00:00 1,8 1,6 1,5 4,5 5,1 7,2 4 2 4 2 NW 1002,3 5 0,0
20.01.2018 20:00:00 1,7 1,3 0,6 4,5 5,1 7,2 0 0 4 2 N 1001,4 4,4 0,0
20.01.2018 19:00:00 2,1 1,8 1,1 4,6 5,1 7,2 0 0 - - N 1000,7 5 0,0
20.01.2018 18:00:00 2,8 2,1 2,4 4,6 5,1 7,2 0 0 7 4 N 1000,3 15 0,0
20.01.2018 17:00:00 3,3 2,1 3,1 4,6 5,1 7,2 4 2 11 6 SSE 1000,1 25 0,0
20.01.2018 16:00:00 3,4 2,0 3,3 4,5 5,1 7,2 11 6 - - S 999,4 21 0,0
20.01.2018 15:00:00 3,6 2,0 3,6 4,4 5,1 7,2 7 4 18 10 S 1000,1 15 0,0
20.01.2018 14:00:00 3,5 2,2 3,4 4,3 5,1 7,2 11 6 22 12 S 1000,6 12 0,0
20.01.2018 13:00:00 3,2 2,2 3,0 4,3 5,2 7,2 11 6 - - S 1001,8 9 0,0
20.01.2018 12:00:00 2,7 1,8 2,4 4,3 5,2 7,2 11 6 22 12 S 1003,2 8 0,0
20.01.2018 11:00:00 1,9 1,1 1,6 4,3 5,2 7,2 14 8 22 12 S 1003,7 9 0,0
20.01.2018 10:00:00 1,2 0,4 0,9 4,3 5,2 7,2 7 4 - - SSE 1004,4 14 0,0
20.01.2018 09:00:00 1,2 0,2 0,6 4,3 5,3 7,2 14 8 22 12 SSW 1004,7 15 0,0
20.01.2018 08:00:00 0,9 0,1 0,2 4,3 5,3 7,2 14 8 22 12 SSW 1004,9 11 0,0
20.01.2018 07:00:00 1,3 0,4 0,3 4,4 5,3 7,2 11 6 - - S 1005,4 12 0,0
20.01.2018 06:00:00 1,3 0,3 0,3 4,4 5,3 7,2 14 8 18 10 SSW 1005,7 13 0,0
20.01.2018 05:00:00 1,7 0,5 0,7 4,5 5,4 7,2 14 8 18 10 SSW 1006,2 15 0,0
20.01.2018 04:00:00 1,9 0,7 1,2 4,5 5,4 7,2 11 6 - - SSW 1006,8 15 0,0
20.01.2018 03:00:00 2,2 0,7 1,6 4,5 5,4 7,3 14 8 25 14 SSW 1007,3 21 0,0
20.01.2018 02:00:00 1,7 0,3 1,0 4,6 5,4 7,3 14 8 22 12 SSW 1007,4 36 0,0
20.01.2018 01:00:00 2,4 0,5 1,5 4,6 5,4 7,3 14 8 - - SW 1007,5 47 0,1
20.01.2018 00:00:00 2,2 0,9 1,7 4,7 5,5 7,3 14 8 25 14 SSW 1007,7 14 0,5
19.01.2018 23:00:00 2,7 0,7 1,6 4,7 5,5 7,3 14 8 25 14 SW 1007,8 32 0,1
19.01.2018 22:00:00 1,5 0,8 0,7 4,8 5,5 7,3 7 4 - - SSW 1007,7 24 1,1
19.01.2018 21:00:00 2,9 0,4 1,7 4,9 5,5 7,3 7 4 14 8 SW 1007,7 39 0,0
19.01.2018 20:00:00 3,0 0,6 1,9 5,0 5,5 7,3 7 4 18 10 SW 1007,5 46 0,0
19.01.2018 19:00:00 3,2 0,6 2,1 5,0 5,5 7,3 11 6 - - SSW 1007,9 38 0,0
19.01.2018 18:00:00 3,8 0,6 2,8 5,1 5,5 7,3 14 8 22 12 SW 1007,5 41 0,0
19.01.2018 17:00:00 4,3 1,4 3,7 5,2 5,5 7,3 7 4 22 12 WSW 1007,5 25 0,3
19.01.2018 16:00:00 4,6 0,2 4,4 5,2 5,4 7,3 14 8 - - W 1007,6 38 0,0
19.01.2018 15:00:00 5,9 0,4 5,7 5,2 5,4 7,3 18 10 32 18 WSW 1007,4 35 0,2
19.01.2018 14:00:00 5,8 1,3 5,8 5,1 5,4 7,3 18 10 32 18 WSW 1007,5 33 0,1
19.01.2018 13:00:00 6,7 2,7 7,4 4,9 5,4 7,3 18 10 - - SW 1007,5 35 0,5
19.01.2018 12:00:00 5,4 2,0 5,4 4,8 5,4 7,3 11 6 25 14 WSW 1007,7 38 0,1
19.01.2018 11:00:00 5,0 2,1 4,5 4,7 5,4 7,3 14 8 22 12 SW 1007,8 30 0,0
19.01.2018 10:00:00 3,9 1,9 3,3 4,7 5,5 7,3 11 6 - - SW 1007,2 29 0,0
19.01.2018 09:00:00 3,7 1,7 3,3 4,7 5,5 7,3 7 4 22 12 SW 1006,6 25 0,0
19.01.2018 08:00:00 3,8 1,2 3,2 4,7 5,5 7,3 11 6 25 14 WSW 1005,9 48 0,0
19.01.2018 07:00:00 2,5 1,6 1,5 4,7 5,5 7,3 7 4 - - WSW 1005,2 21 0,1
19.01.2018 06:00:00 2,7 2,2 1,5 4,8 5,5 7,3 7 4 14 8 SW 1004,7 21 0,0
19.01.2018 05:00:00 2,8 1,9 2,2 4,8 5,5 7,3 7 4 25 14 W 1003,9 50 0,6
19.01.2018 04:00:00 3,4 2,4 3,1 4,8 5,6 7,3 7 4 - - W 1003,6 23 0,6
19.01.2018 03:00:00 3,2 2,4 3,0 4,8 5,6 7,3 7 4 18 10 SW 1003,2 16 1,1
19.01.2018 02:00:00 2,8 2,1 2,5 4,8 5,6 7,3 11 6 18 10 SW 1002,8 16 0,0
19.01.2018 01:00:00 2,5 1,9 2,0 4,8 5,7 7,4 4 2 - - SW 1002,4 50 2,0
19.01.2018 00:00:00 3,2 2,5 2,9 4,9 5,7 7,4 7 4 14 8 WSW 1002,3 10 0,3
18.01.2018 23:00:00 3,0 2,3 2,5 4,9 5,7 7,4 11 6 18 10 SW 1001,8 6 0,5
18.01.2018 22:00:00 2,7 2,1 2,0 5,0 5,7 7,4 7 4 - - SSW 1001,5 22 0,7
18.01.2018 21:00:00 1,7 0,6 -0,8 5,1 5,7 7,4 7 4 7 4 SSW 1001,4 24 0,0
18.01.2018 20:00:00 2,0 0,3 -0,8 5,2 5,7 7,4 4 2 11 6 SW 1001,2 41 0,0
18.01.2018 19:00:00 3,8 1,1 2,4 5,3 5,7 7,4 11 6 - - W 1001,0 43 0,0
18.01.2018 18:00:00 4,5 1,3 3,8 5,4 5,7 7,4 14 8 25 14 W 1001,1 45 0,0
18.01.2018 17:00:00 4,7 1,9 4,0 5,5 5,7 7,4 11 6 29 16 W 1000,8 37 0,0
18.01.2018 16:00:00 4,7 2,4 4,1 5,5 5,7 7,4 18 10 - - W 1000,2 39 1,0
18.01.2018 15:00:00 5,0 2,3 4,8 5,5 5,7 7,4 22 12 47 25 W 999,5 32 0,1
18.01.2018 14:00:00 5,2 2,5 4,9 5,4 5,7 7,4 18 10 58 31 WNW 998,4 43 0,4
18.01.2018 13:00:00 5,0 2,1 5,0 5,4 5,6 7,4 29 16 - - W 996,8 12 0,2
18.01.2018 12:00:00 5,9 1,7 5,8 5,4 5,6 7,4 40 21 68 37 WNW 994,1 18 0,0
18.01.2018 11:00:00 5,6 1,6 5,3 5,4 5,6 7,4 47 25 115 62 W 989,5 12 0,0
18.01.2018 10:00:00 6,3 1,7 6,1 5,4 5,6 7,4 47 25 - - W 985,8 12 0,0

tt = Température de l'air
td = dewpoint
tt 5cm = Température de l'air 5cm
tt -5cm = Température de l'air -5cm
tt -20cm = Température de l'air -20cm
tt -100cm = Température de l'air -100cm
ff = Vitesse du vent
fx = gusts
dd = Direction du vent
ppp = reduced air pressure
vv = visibility
rr = Quantités de précipitations

stations d'obs. à proximité